﻿測定場所 (Monitoring sites),日付 (Measurement date),時間 (Measurement time),線量率 最大値 (max) μGy/h,線量率 最小値 (min) μGy/h,線量率 平均値 (average) μGy/h,
大田 (Ota),2014-09-14,23:01～24:00,0.0457,0.0393,0.0424,
大田 (Ota),2014-09-14,22:01～23:00,0.0458,0.0390,0.0425,
大田 (Ota),2014-09-14,21:01～22:00,0.0456,0.0391,0.0425,
大田 (Ota),2014-09-14,20:01～21:00,0.0457,0.0398,0.0425,
大田 (Ota),2014-09-14,19:01～20:00,0.0470,0.0389,0.0427,
大田 (Ota),2014-09-14,18:01～19:00,0.0455,0.0379,0.0425,
大田 (Ota),2014-09-14,17:01～18:00,0.0455,0.0397,0.0427,
大田 (Ota),2014-09-14,16:01～17:00,0.0466,0.0390,0.0425,
大田 (Ota),2014-09-14,15:01～16:00,0.0455,0.0399,0.0425,
大田 (Ota),2014-09-14,14:01～15:00,0.0456,0.0372,0.0427,
大田 (Ota),2014-09-14,13:01～14:00,0.0455,0.0400,0.0423,
大田 (Ota),2014-09-14,12:01～13:00,0.0459,0.0393,0.0425,
大田 (Ota),2014-09-14,11:01～12:00,0.0470,0.0390,0.0427,
大田 (Ota),2014-09-14,10:01～11:00,0.0461,0.0398,0.0426,
大田 (Ota),2014-09-14,09:01～10:00,0.0460,0.0389,0.0425,
大田 (Ota),2014-09-14,08:01～09:00,0.0450,0.0394,0.0426,
大田 (Ota),2014-09-14,07:01～08:00,0.0458,0.0402,0.0427,
大田 (Ota),2014-09-14,06:01～07:00,0.0452,0.0389,0.0424,
大田 (Ota),2014-09-14,05:01～06:00,0.0451,0.0394,0.0426,
大田 (Ota),2014-09-14,04:01～05:00,0.0469,0.0395,0.0425,
大田 (Ota),2014-09-14,03:01～04:00,0.0458,0.0398,0.0424,
大田 (Ota),2014-09-14,02:01～03:00,0.0453,0.0383,0.0423,
大田 (Ota),2014-09-14,01:01～02:00,0.0451,0.0368,0.0423,
大田 (Ota),2014-09-14,00:01～01:00,0.0450,0.0395,0.0423,
大田 (Ota),2014-09-13,23:01～24:00,0.0448,0.0393,0.0420,
大田 (Ota),2014-09-13,22:01～23:00,0.0471,0.0393,0.0424,
大田 (Ota),2014-09-13,21:01～22:00,0.0466,0.0387,0.0424,
大田 (Ota),2014-09-13,20:01～21:00,0.0457,0.0391,0.0420,
大田 (Ota),2014-09-13,19:01～20:00,0.0447,0.0383,0.0421,
大田 (Ota),2014-09-13,18:01～19:00,0.0456,0.0388,0.0423,
大田 (Ota),2014-09-13,17:01～18:00,0.0457,0.0388,0.0421,
大田 (Ota),2014-09-13,16:01～17:00,0.0460,0.0398,0.0425,
大田 (Ota),2014-09-13,15:01～16:00,0.0463,0.0394,0.0423,
大田 (Ota),2014-09-13,14:01～15:00,0.0452,0.0388,0.0422,
大田 (Ota),2014-09-13,13:01～14:00,0.0454,0.0389,0.0425,
大田 (Ota),2014-09-13,12:01～13:00,0.0454,0.0396,0.0422,
大田 (Ota),2014-09-13,11:01～12:00,0.0446,0.0391,0.0421,
大田 (Ota),2014-09-13,10:01～11:00,0.0464,0.0391,0.0424,
大田 (Ota),2014-09-13,09:01～10:00,0.0466,0.0400,0.0426,
大田 (Ota),2014-09-13,08:01～09:00,0.0458,0.0399,0.0425,
大田 (Ota),2014-09-13,07:01～08:00,0.0458,0.0392,0.0428,
大田 (Ota),2014-09-13,06:01～07:00,0.0460,0.0396,0.0422,
大田 (Ota),2014-09-13,05:01～06:00,0.0446,0.0385,0.0418,
大田 (Ota),2014-09-13,04:01～05:00,0.0468,0.0391,0.0423,
大田 (Ota),2014-09-13,03:01～04:00,0.0480,0.0400,0.0426,
大田 (Ota),2014-09-13,02:01～03:00,0.0474,0.0401,0.0441,
大田 (Ota),2014-09-13,01:01～02:00,0.0456,0.0394,0.0426,
大田 (Ota),2014-09-13,00:01～01:00,0.0460,0.0379,0.0419,
大田 (Ota),2014-09-12,23:01～24:00,0.0449,0.0391,0.0424,
大田 (Ota),2014-09-12,22:01～23:00,0.0449,0.0389,0.0422,
大田 (Ota),2014-09-12,21:01～22:00,0.0446,0.0387,0.0419,
大田 (Ota),2014-09-12,20:01～21:00,0.0466,0.0385,0.0419,
大田 (Ota),2014-09-12,19:01～20:00,0.0456,0.0389,0.0423,
大田 (Ota),2014-09-12,18:01～19:00,0.0456,0.0389,0.0423,
大田 (Ota),2014-09-12,17:01～18:00,0.0463,0.0397,0.0428,
大田 (Ota),2014-09-12,16:01～17:00,0.0474,0.0390,0.0423,
大田 (Ota),2014-09-12,15:01～16:00,0.0453,0.0386,0.0422,
大田 (Ota),2014-09-12,14:01～15:00,0.0446,0.0386,0.0421,
大田 (Ota),2014-09-12,13:01～14:00,0.0451,0.0381,0.0420,
大田 (Ota),2014-09-12,12:01～13:00,0.0450,0.0378,0.0419,
大田 (Ota),2014-09-12,11:01～12:00,0.0451,0.0384,0.0421,
大田 (Ota),2014-09-12,10:01～11:00,0.0453,0.0386,0.0421,
大田 (Ota),2014-09-12,09:01～10:00,0.0442,0.0390,0.0419,
大田 (Ota),2014-09-12,08:01～09:00,0.0453,0.0371,0.0421,
大田 (Ota),2014-09-12,07:01～08:00,0.0467,0.0387,0.0421,
大田 (Ota),2014-09-12,06:01～07:00,0.0459,0.0400,0.0425,
大田 (Ota),2014-09-12,05:01～06:00,0.0447,0.0386,0.0417,
大田 (Ota),2014-09-12,04:01～05:00,0.0461,0.0398,0.0419,
大田 (Ota),2014-09-12,03:01～04:00,0.0445,0.0382,0.0418,
大田 (Ota),2014-09-12,02:01～03:00,0.0457,0.0391,0.0420,
大田 (Ota),2014-09-12,01:01～02:00,0.0448,0.0386,0.0416,
大田 (Ota),2014-09-12,00:01～01:00,0.0473,0.0390,0.0419,
大田 (Ota),2014-09-11,23:01～24:00,0.0462,0.0402,0.0433,
大田 (Ota),2014-09-11,22:01～23:00,0.0507,0.0436,0.0469,
大田 (Ota),2014-09-11,21:01～22:00,0.0478,0.0403,0.0443,
大田 (Ota),2014-09-11,20:01～21:00,0.0459,0.0392,0.0422,
大田 (Ota),2014-09-11,19:01～20:00,0.0447,0.0393,0.0418,
大田 (Ota),2014-09-11,18:01～19:00,0.0453,0.0387,0.0419,
大田 (Ota),2014-09-11,17:01～18:00,0.0445,0.0396,0.0419,
大田 (Ota),2014-09-11,16:01～17:00,0.0484,0.0398,0.0438,
大田 (Ota),2014-09-11,15:01～16:00,0.0541,0.0426,0.0478,
大田 (Ota),2014-09-11,14:01～15:00,0.0575,0.0447,0.0522,
大田 (Ota),2014-09-11,13:01～14:00,0.0478,0.0408,0.0448,
大田 (Ota),2014-09-11,12:01～13:00,0.0480,0.0411,0.0446,
大田 (Ota),2014-09-11,11:01～12:00,0.0496,0.0423,0.0457,
大田 (Ota),2014-09-11,10:01～11:00,0.0503,0.0429,0.0475,
大田 (Ota),2014-09-11,09:01～10:00,0.0487,0.0419,0.0458,
大田 (Ota),2014-09-11,08:01～09:00,0.0516,0.0429,0.0476,
大田 (Ota),2014-09-11,07:01～08:00,0.0504,0.0426,0.0459,
大田 (Ota),2014-09-11,06:01～07:00,0.0457,0.0399,0.0426,
大田 (Ota),2014-09-11,05:01～06:00,0.0471,0.0392,0.0424,
大田 (Ota),2014-09-11,04:01～05:00,0.0454,0.0371,0.0423,
大田 (Ota),2014-09-11,03:01～04:00,0.0449,0.0391,0.0423,
大田 (Ota),2014-09-11,02:01～03:00,0.0447,0.0394,0.0424,
大田 (Ota),2014-09-11,01:01～02:00,0.0450,0.0379,0.0421,
大田 (Ota),2014-09-11,00:01～01:00,0.0466,0.0382,0.0426,
大田 (Ota),2014-09-10,23:01～24:00,0.0473,0.0397,0.0432,
大田 (Ota),2014-09-10,22:01～23:00,0.0488,0.0410,0.0452,
大田 (Ota),2014-09-10,21:01～22:00,0.0482,0.0406,0.0439,
大田 (Ota),2014-09-10,20:01～21:00,0.0466,0.0408,0.0441,
大田 (Ota),2014-09-10,19:01～20:00,0.0511,0.0428,0.0456,
大田 (Ota),2014-09-10,18:01～19:00,0.0461,0.0387,0.0423,
大田 (Ota),2014-09-10,17:01～18:00,0.0451,0.0383,0.0418,
大田 (Ota),2014-09-10,16:01～17:00,0.0459,0.0402,0.0424,
大田 (Ota),2014-09-10,15:01～16:00,0.0450,0.0390,0.0421,
大田 (Ota),2014-09-10,14:01～15:00,0.0461,0.0388,0.0421,
大田 (Ota),2014-09-10,13:01～14:00,0.0449,0.0393,0.0421,
大田 (Ota),2014-09-10,12:01～13:00,0.0456,0.0381,0.0421,
大田 (Ota),2014-09-10,11:01～12:00,0.0459,0.0398,0.0423,
大田 (Ota),2014-09-10,10:01～11:00,0.0461,0.0389,0.0423,
大田 (Ota),2014-09-10,09:01～10:00,0.0460,0.0401,0.0424,
大田 (Ota),2014-09-10,08:01～09:00,0.0457,0.0379,0.0420,
大田 (Ota),2014-09-10,07:01～08:00,0.0448,0.0391,0.0417,
大田 (Ota),2014-09-10,06:01～07:00,0.0455,0.0394,0.0421,
大田 (Ota),2014-09-10,05:01～06:00,0.0452,0.0389,0.0422,
大田 (Ota),2014-09-10,04:01～05:00,0.0449,0.0382,0.0422,
大田 (Ota),2014-09-10,03:01～04:00,0.0455,0.0393,0.0420,
大田 (Ota),2014-09-10,02:01～03:00,0.0451,0.0387,0.0422,
大田 (Ota),2014-09-10,01:01～02:00,0.0447,0.0388,0.0419,
大田 (Ota),2014-09-10,00:01～01:00,0.0454,0.0385,0.0420,
大田 (Ota),2014-09-09,23:01～24:00,0.0466,0.0387,0.0422,
大田 (Ota),2014-09-09,22:01～23:00,0.0459,0.0382,0.0422,
大田 (Ota),2014-09-09,21:01～22:00,0.0457,0.0393,0.0419,
大田 (Ota),2014-09-09,20:01～21:00,0.0457,0.0385,0.0424,
大田 (Ota),2014-09-09,19:01～20:00,0.0472,0.0380,0.0419,
大田 (Ota),2014-09-09,18:01～19:00,0.0445,0.0390,0.0420,
大田 (Ota),2014-09-09,17:01～18:00,0.0454,0.0399,0.0422,
大田 (Ota),2014-09-09,16:01～17:00,0.0443,0.0385,0.0419,
大田 (Ota),2014-09-09,15:01～16:00,0.0447,0.0388,0.0422,
大田 (Ota),2014-09-09,14:01～15:00,0.0450,0.0384,0.0418,
大田 (Ota),2014-09-09,13:01～14:00,0.0453,0.0392,0.0421,
大田 (Ota),2014-09-09,12:01～13:00,0.0447,0.0402,0.0422,
大田 (Ota),2014-09-09,11:01～12:00,0.0461,0.0394,0.0424,
大田 (Ota),2014-09-09,10:01～11:00,0.0461,0.0394,0.0421,
大田 (Ota),2014-09-09,09:01～10:00,0.0466,0.0396,0.0430,
大田 (Ota),2014-09-09,08:01～09:00,0.0482,0.0402,0.0451,
大田 (Ota),2014-09-09,07:01～08:00,0.0509,0.0413,0.0464,
大田 (Ota),2014-09-09,06:01～07:00,0.0453,0.0395,0.0425,
大田 (Ota),2014-09-09,05:01～06:00,0.0446,0.0390,0.0419,
大田 (Ota),2014-09-09,04:01～05:00,0.0461,0.0392,0.0423,
大田 (Ota),2014-09-09,03:01～04:00,0.0457,0.0392,0.0429,
大田 (Ota),2014-09-09,02:01～03:00,0.0461,0.0400,0.0430,
大田 (Ota),2014-09-09,01:01～02:00,0.0487,0.0395,0.0438,
大田 (Ota),2014-09-09,00:01～01:00,0.0454,0.0384,0.0420,
大田 (Ota),2014-09-08,23:01～24:00,0.0448,0.0396,0.0423,
大田 (Ota),2014-09-08,22:01～23:00,0.0481,0.0412,0.0446,
大田 (Ota),2014-09-08,21:01～22:00,0.0506,0.0422,0.0452,
大田 (Ota),2014-09-08,20:01～21:00,0.0475,0.0416,0.0444,
大田 (Ota),2014-09-08,19:01～20:00,0.0469,0.0401,0.0436,
大田 (Ota),2014-09-08,18:01～19:00,0.0480,0.0396,0.0436,
大田 (Ota),2014-09-08,17:01～18:00,0.0461,0.0391,0.0426,
大田 (Ota),2014-09-08,16:01～17:00,0.0459,0.0386,0.0424,
大田 (Ota),2014-09-08,15:01～16:00,0.0457,0.0396,0.0422,
大田 (Ota),2014-09-08,14:01～15:00,0.0449,0.0392,0.0420,
大田 (Ota),2014-09-08,13:01～14:00,0.0448,0.0388,0.0421,
大田 (Ota),2014-09-08,12:01～13:00,0.0451,0.0386,0.0419,
大田 (Ota),2014-09-08,11:01～12:00,0.0450,0.0398,0.0420,
大田 (Ota),2014-09-08,10:01～11:00,0.0471,0.0387,0.0421,
大田 (Ota),2014-09-08,09:01～10:00,0.0455,0.0394,0.0421,
大田 (Ota),2014-09-08,08:01～09:00,0.0450,0.0393,0.0421,
大田 (Ota),2014-09-08,07:01～08:00,0.0460,0.0395,0.0420,
大田 (Ota),2014-09-08,06:01～07:00,0.0457,0.0384,0.0419,
大田 (Ota),2014-09-08,05:01～06:00,0.0449,0.0400,0.0421,
大田 (Ota),2014-09-08,04:01～05:00,0.0445,0.0375,0.0416,
大田 (Ota),2014-09-08,03:01～04:00,0.0450,0.0388,0.0417,
大田 (Ota),2014-09-08,02:01～03:00,0.0452,0.0389,0.0418,
大田 (Ota),2014-09-08,01:01～02:00,0.0445,0.0383,0.0416,
大田 (Ota),2014-09-08,00:01～01:00,0.0451,0.0390,0.0418,
